"Pseudo-MPEC" for P12paCm

Created 2026 Aug 13 5:35:16 UT using Find_Orb

Click here for an explanation of pseudo-MPECs

 
 Astrometry: 
     P12paCm 0C2026 07 26.58416100 49 34.475-26 15 24.44   ~8BLZ 20.65wXNEOCPF51
     P12paCm 0C2026 07 26.59414400 49 36.281-26 14 47.07   ~8BLZ 20.79wXNEOCPF51
     P12paCm 0C2026 07 26.60410100 49 38.092-26 14 09.65   ~8BLZ 20.45wXNEOCPF51
     P12paCm 0C2026 07 26.61432400 49 39.918-26 13 30.75   ~8BLZ       VNEOCPF51
     P12paCm*0C2026 08 11.55238301 31 37.289-07 43 38.43   ~8BG5 20.37wXNEOCPF51
     P12paCm 0C2026 08 11.56625801 31 38.689-07 42 37.95   ~8BG5 20.21wXNEOCPF51
     P12paCm 0C2026 08 11.59409501 31 41.481-07 40 36.82   ~8BG5 20.56wXNEOCPF51
     P12paCm KB2026 08 12.01570901 32 31.61 -07 10 11.2    ~8C15 17.7 GVNEOCPL01
     P12paCm KB2026 08 12.01888101 32 31.93 -07 09 56.9    ~8C15 20.1 GVNEOCPL01
     P12paCm KB2026 08 12.02184201 32 32.23 -07 09 44.0    ~8C15 19.9 GVNEOCPL01
     P12paCm KB2026 08 12.02480201 32 32.55 -07 09 30.9    ~8C15 19.8 GVNEOCPL01
     P12paCm KB2026 08 12.02776201 32 32.90 -07 09 18.2    ~8C15 18.0 GVNEOCPL01
     P12paCm KC2026 08 12.36089301 33 10.46 -06 45 04.4    ~8C9K 20.1 GVNEOCPH21
     P12paCm KC2026 08 12.36650701 33 11.01 -06 44 39.9    ~8C9K 20.3 GVNEOCPH21
     P12paCm KC2026 08 12.36993301 33 11.38 -06 44 25.0    ~8C9K 19.8 GVNEOCPH21
     P12paCm KB2026 08 13.06542001 34 29.143-05 54 00.58   ~8D5Z 20.4 VZNEOCPK74
     P12paCm KB2026 08 13.09591201 34 32.141-05 51 48.17   ~8D5Z 20.4 VZNEOCPK74

Station data:
(F51) Pan-STARRS 1, Haleakala  (N20.707234 W156.255910)  US/Hawaii.
   Observers J. Herman, T. Lowe, P. Minguez, A. Schultz, I. Smith. Measurers
   K. Chambers, T. de Boer, J. Fairlamb, H. Gao, M. Huber, C.-C. Lin, E.
   Magnier, Y. Ramanjooloo, R. Wainscoat, R. Weryk. 1.8-m Ritchey-Chrétien +
   CCD.
(H21) Astronomical Research Observatory, Westfield  (N39.483054 W87.968270)
   US/Illinois.  Observer R. Holmes. Measurers S. Foglia, L. Buzzi, T.
   Linder, R. Holmes. 0.40-m f/5.32 astrograph + CCD.
(K74) Muensterschwarzach Observatory, Schwarzach  (N49.805276 E10.236400)
   Germany.  Observer C. Gerhard. 0.30-m f/3.75 Newtonian reflector + CCD.
(L01) Višnjan Observatory, Tičan  (N45.290897 E13.749300)  Croatia.
   Observers K. Korlević, L. Poropat. Measurer K. Korlevic. 1.0-m f/2.9
   reflector + CCD.

Orbital elements:  P12paCm
   Perihelion 2026 Aug 10.281970 +/- 0.00775 TT =  6:46:02.2 (JD 2461262.781970)
Epoch 2026 Aug 13.0 TT = JDT 2461265.5   Earth MOID: 0.1221      AutoNEOCP
M   0.881355407 +/- 0.0055          (J2000 ecliptic)
n   0.324262593 +/- 0.00281         Peri.  342.006132 +/- 0.013
a   2.098318844 +/- 0.0121          Node   343.569985 +/- 0.037
e   0.46386803 +/- 0.00284          Incl.    9.904622 +/- 0.037
P   3.03954                H 21.34  G  0.15   U  8.8
q 1.124975803 +/- 0.000557    Q 3.071661886 +/- 0.0237
From 17 observations 2026 July 26-Aug. 13; mean residual 0".28
Residuals in arcseconds: 
260726 F51  .04+  .07+    260811 F51  .00   .06-    260812 H21  .44+  .45-    
260726 F51  .00   .08-    260812 L01  .13-  .38-    260812 H21  .27+  .37-    
260726 F51  .13+  .16-    260812 L01  .35-  .14+    260812 H21  .69+  .37-    
260726 F51  .17-  .17+    260812 L01  .53-  .18+    260813 K74  .11-  .23+    
260811 F51  .01+  .00     260812 L01  .40-  .42+    260813 K74  .33-  .20+    
260811 F51  .00   .09+    260812 L01  .18+  .26+    

Ephemerides (geocentric):
Date (UTC) HH   RA             Dec           delta  r     elong  mag " sig PA
---- --------  ------------   ------------  ------ ------ -----  --- --------
2026 08 13 06  01 34 48.424   -05 40 02.48  .20116 1.1255 119.3 20.0 .458 132
2026 08 13 07  01 34 52.957   -05 37 01.32  .20115 1.1255 119.3 20.0 .469 132
2026 08 13 08  01 34 57.481   -05 34 00.18  .20115 1.1255 119.3 20.0 .480 132
2026 08 13 09  01 35 01.997   -05 30 59.06  .20115 1.1255 119.3 20.0 .491 132
2026 08 13 10  01 35 06.504   -05 27 57.97  .20115 1.1255 119.4 20.0 .502 132
2026 08 13 11  01 35 11.002   -05 24 56.90  .20114 1.1255 119.4 20.0 .514 132
2026 08 13 12  01 35 15.491   -05 21 55.85  .20114 1.1255 119.4 20.0 .525 131
2026 08 13 13  01 35 19.972   -05 18 54.83  .20114 1.1256 119.4 20.0 .537 131
2026 08 13 14  01 35 24.444   -05 15 53.83  .20114 1.1256 119.4 20.0 .548 131
2026 08 13 15  01 35 28.907   -05 12 52.85  .20114 1.1256 119.4 20.0 .560 131
2026 08 13 16  01 35 33.362   -05 09 51.91  .20114 1.1256 119.4 20.0 .572 131
2026 08 13 17  01 35 37.808   -05 06 50.98  .20113 1.1256 119.4 20.0 .583 131
2026 08 13 18  01 35 42.245   -05 03 50.09  .20113 1.1256 119.4 20.0 .595 131
2026 08 13 19  01 35 46.674   -05 00 49.22  .20113 1.1256 119.4 20.0 .607 131
2026 08 13 20  01 35 51.093   -04 57 48.37  .20113 1.1257 119.4 20.0 .619 131
2026 08 13 21  01 35 55.505   -04 54 47.56  .20113 1.1257 119.4 20.0 .631 131
2026 08 13 22  01 35 59.907   -04 51 46.77  .20113 1.1257 119.5 20.0 .643 131
2026 08 13 23  01 36 04.301   -04 48 46.00  .20113 1.1257 119.5 20.0 .655 131
2026 08 14 00  01 36 08.686   -04 45 45.27  .20113 1.1257 119.5 20.0 .668 131
2026 08 14 01  01 36 13.063   -04 42 44.56  .20113 1.1257 119.5 20.0 .680 131
2026 08 14 02  01 36 17.431   -04 39 43.89  .20113 1.1258 119.5 20.0 .692 131
2026 08 14 03  01 36 21.790   -04 36 43.24  .20113 1.1258 119.5 20.0 .705 131
2026 08 14 04  01 36 26.141   -04 33 42.62  .20113 1.1258 119.5 20.0 .717 131
2026 08 14 05  01 36 30.483   -04 30 42.03  .20114 1.1258 119.5 20.0 .730 131
2026 08 14 06  01 36 34.816   -04 27 41.47  .20114 1.1258 119.5 20.0 .742 131
2026 08 14 07  01 36 39.141   -04 24 40.94  .20114 1.1258 119.5 20.0 .755 131
2026 08 14 08  01 36 43.457   -04 21 40.44  .20114 1.1259 119.5 20.0 .768 131
2026 08 14 09  01 36 47.764   -04 18 39.98  .20114 1.1259 119.5 20.0 .781 131
2026 08 14 10  01 36 52.063   -04 15 39.54  .20114 1.1259 119.6 20.0 .794 131
2026 08 14 11  01 36 56.353   -04 12 39.14  .20115 1.1259 119.6 20.0 .807 131
2026 08 14 12  01 37 00.634   -04 09 38.77  .20115 1.1259 119.6 20.0 .820 131
2026 08 14 13  01 37 04.907   -04 06 38.43  .20115 1.1260 119.6 20.0 .833 131
2026 08 14 14  01 37 09.171   -04 03 38.12  .20115 1.1260 119.6 20.0 .846 131
2026 08 14 15  01 37 13.427   -04 00 37.85  .20116 1.1260 119.6 20.0 .859 131
2026 08 14 16  01 37 17.674   -03 57 37.61  .20116 1.1260 119.6 20.0 .872 131
2026 08 14 17  01 37 21.912   -03 54 37.40  .20116 1.1260 119.6 20.0 .886 131
2026 08 14 18  01 37 26.142   -03 51 37.23  .20116 1.1261 119.6 20.0 .899 131
2026 08 14 19  01 37 30.363   -03 48 37.09  .20117 1.1261 119.6 20.0 .913 131
2026 08 14 20  01 37 34.575   -03 45 36.99  .20117 1.1261 119.7 20.0 .926 131
2026 08 14 21  01 37 38.779   -03 42 36.93  .20117 1.1261 119.7 20.0 .940 131
2026 08 14 22  01 37 42.974   -03 39 36.89  .20118 1.1261 119.7 20.0 .953 131
2026 08 14 23  01 37 47.161   -03 36 36.90  .20118 1.1262 119.7 20.0 .967 131
2026 08 15 00  01 37 51.338   -03 33 36.94  .20119 1.1262 119.7 20.0 .981 131
2026 08 15 01  01 37 55.508   -03 30 37.02  .20119 1.1262 119.7 20.0 0.99 131
2026 08 15 02  01 37 59.669   -03 27 37.13  .20120 1.1262 119.7 20.0 1.01 131
2026 08 15 03  01 38 03.821   -03 24 37.29  .20120 1.1262 119.7 20.0 1.02 131
2026 08 15 04  01 38 07.964   -03 21 37.48  .20121 1.1263 119.7 20.0 1.04 131
2026 08 15 05  01 38 12.099   -03 18 37.70  .20121 1.1263 119.7 20.0 1.05 131